Regional Weather Roundup
Issued by NWS

Home | Current Version | Previous Version | Text Only | Print | Product List | Glossary Off
Versions: 1 2 3 4 5 6 7 8 9 10 11 12 13 14 15 16 17 18 19 20 21 22 23 24 25 26 27 28 29 30 31 32 33 34 35 36 37 38 39 40 41 42 43 44 45 46 47 48 49 50

000
ASUS43 KFSD 302102
RWRSD

WEATHER ROUNDUP FOR SOUTH DAKOTA
NATIONAL WEATHER SERVICE SIOUX FALLS SD
400 PM CDT THU OCT 30 2014

NOTE: "FAIR" INDICATES FEW OR NO CLOUDS BELOW 12,000 FEET WITH NO
SIGNIFICANT WEATHER AND/OR OBSTRUCTIONS TO VISIBILITY.


SDZ001>005-009-010-012>017-302200-
NORTHWEST AND NORTH CENTRAL SOUTH DAKOTA

CITY           SKY/WX    TMP DP  RH WIND       PRES   REMARKS
BUFFALO          N/A     40  31  70 NE8       30.32S
FAITH            N/A     40  31  70 N14       30.38R
MOBRIDGE       CLOUDY    39  31  72 N15       30.38R
$$

SDZ012>016-024>037-041>051-057-063-072>074-302200-
SOUTHWEST AND SOUTH CENTRAL SOUTH DAKOTA

CITY           SKY/WX    TMP DP  RH WIND       PRES   REMARKS
RAPID CTY ARPT SUNNY     50  35  56 N20       30.32S
PIERRE         SUNNY     48  31  51 N17G24    30.34S
CUSTER         MOSUNNY   50  32  50 SE6       30.32R
ELLSWORTH AFB  SUNNY     49  35  58 NE15      30.34R
PHILIP         SUNNY     48  32  53 N13       30.37R
PINE RIDGE     SUNNY     57  33  40 N16       30.31S
SPEARFISH      FAIR      50  36  57 NE8       30.35R
WINNER         FAIR      51  33  50 N21G30    30.31R
$$

SDZ004>011-016>023-039-040-302200-
NORTHEAST SOUTH DAKOTA

CITY           SKY/WX    TMP DP  RH WIND       PRES   REMARKS
ABERDEEN       CLOUDY    40  30  67 N23G29    30.37R
WATERTOWN      CLOUDY    38  32  79 N22G30    30.26R
SISSETON         N/A     38  32  79 N20G26    30.31R
$$

SDZ017-020-022-023-036>040-048>070-302200-
SOUTHEAST SOUTH DAKOTA

CITY           SKY/WX    TMP DP  RH WIND       PRES   REMARKS
SIOUX FALLS    CLOUDY    48  40  73 N18G26    30.20R
HURON          CLOUDY    44  33  65 N16       30.31R
CHAMBERLAIN    CLOUDY    44  34  68 N14G23    30.32R
MITCHELL       CLOUDY    44  37  76 N26G35    30.29R
YANKTON        CLOUDY    46  37  71 NW23      30.23R
$$

ABBREVIATIONS USED IN REMARKS
   TC - TEMPERATURE IN CELSIUS
  WCI - WIND CHILL INDEX
   HX - HEAT INDEX
  VSB - VISIBILITY




USA.gov is the U.S. government's official web portal to all federal, state and local government web resources and services.